Regional Weather Roundup
Issued by NWS

Home | Current Version | Previous Version | Text Only | Print | Product List | Glossary Off
Versions: 1 2 3 4 5 6 7 8 9 10 11 12 13 14 15 16 17 18 19 20 21 22 23 24 25 26 27 28 29 30 31 32 33 34 35 36 37 38 39 40 41 42 43 44 45 46 47 48 49 50

000
ASUS43 KBIS 181302
RWRND

NORTH DAKOTA REGIONAL WEATHER ROUNDUP
NATIONAL WEATHER SERVICE BISMARCK ND
700 AM CST WED JAN 18 2017

NOTE: "FAIR" INDICATES FEW OR NO CLOUDS BELOW 12,000 FEET WITH NO
SIGNIFICANT WEATHER AND/OR OBSTRUCTIONS TO VISIBILITY.


NDZ001>003-009>011-017-181400-
NORTHWEST NORTH DAKOTA

CITY           SKY/WX    TMP DP  RH WIND       PRES   REMARKS
WILLISTON      FAIR      26  22  84 CALM      29.68S
MINOT          FAIR      35  27  72 SW16      29.66R
$$

NDZ018>021-031>035-040>046-181400-
SOUTHWEST NORTH DAKOTA

CITY           SKY/WX    TMP DP  RH WIND       PRES   REMARKS
BISMARCK       FAIR      18  12  77 E5        29.76R WCI  11
DICKINSON      FAIR      32  22  66 W16       29.69F
GARRISON         N/A     31  23  72 SW6       29.68F
HETTINGER ARPT CLOUDY    22  16  78 CALM      29.77R
$$

NDZ004>008-012>016-024-026-027-054-181400-
NORTHEAST NORTH DAKOTA

CITY           SKY/WX    TMP DP  RH WIND       PRES   REMARKS
GRAND FORKS    CLOUDY    24  17  74 S15       29.69S WCI  11
GRND FRKS AFB  CLOUDY    23  18  81 S12       29.69R WCI  11
DEVILS LAKE    FAIR      28  23  81 SW13      29.68S WCI  17
$$

NDZ022-023-025-028>030-036>039-047>053-181400-
SOUTHEAST NORTH DAKOTA

CITY           SKY/WX    TMP DP  RH WIND       PRES   REMARKS
FARGO          CLOUDY    22  17  81 S10       29.76F WCI  11
JAMESTOWN      FAIR      28  21  75 W12       29.73S WCI  18
$$




USA.gov is the U.S. government's official web portal to all federal, state and local government web resources and services.